Content
SEND FEEDBACK

Daily
Averages
Monthly
Summary
United States of America

WILMINGTON, NORTH CAROLINA


Home > North America > United States > North Carolina
Elevation: 72 feet     Latitude: 34 16N     Longitude: 077 54W

WEATHER
 
SELECT A DAY
Number of Records: 213,364;   Date Range: 1/1/95 - 11/26/14
 
SHARE

PRINT THIS DATA

[ ← Previous Day ]
WEATHER ALMANAC - JULY 6, 2013
[ Next Day → ]
[ °C ]   °F
Weather ElementAverageHighLow
Temperature79.3 °F86 °F (2:53 pm)71.1 °F (4:53 am)
Dewpoint71.3 °F75 °F (7:53 am)69.1 °F (11:53 am)
Humidity77.5 %97 % (6:53 am)61 % (11:53 am)
Barometer30.23 in30.26 in (8:53 am)30.17 in (6:53 pm)
Wind Speed6.1 mph12.7 mph (3:53 pm)
Wind Gust17.3 mph (1:53 pm)
Weather ElementAverage
Visibility10 mi
Wind DirectionESE (106 °)

Weather ElementTotal
Precipitation0.01 in
Cooling Degree Days13.6 (Base 65)
Growing Degree Days28.6 (Base 50)
Averaged from 25 records on July 6, 2013
WEATHER CONDITIONS BREAKOUT
WIND DIRECTION BREAKOUT
WEATHER BY HOUR - JULY 6, 2013
[ °C ]   °F
Local TimeTemperatureDewpointHumidityBarometerVisibilityWind DirectionWind SpeedGust SpeedPrecipitationEventsConditions
1:53 AM73.9 °F72.0 °F93 %30.24 in10.0 miCalmClear
2:53 AM75.0 °F72.0 °F90 %30.22 in10.0 miSSE (150°)3.5 mphClear
3:53 AM73.9 °F71.1 °F91 %30.22 in10.0 miCalmClear
4:53 AM71.1 °F70.0 °F96 %30.22 in10.0 miCalmClear
5:53 AM71.1 °F70.0 °F96 %30.23 in10.0 miCalmClear
6:53 AM72.0 °F71.1 °F97 %30.24 in10.0 miNE (40°)3.5 mphClear
7:53 AM79.0 °F75.0 °F88 %30.25 in10.0 miCalmClear
8:53 AM80.1 °F72.0 °F76 %30.26 in10.0 miSE (130°)6.9 mphScattered Clouds
9:41 AM80.6 °F71.6 °F74 %30.25 in10.0 miSSE (160°)10.4 mphMostly Cloudy
9:53 AM81.0 °F73.0 °F77 %30.26 in10.0 miSouth (170°)6.9 mphOvercast
10:09 AM82.4 °F73.4 °F74 %30.26 in10.0 miSouth (170°)10.4 mphMostly Cloudy
10:53 AM84.0 °F71.1 °F65 %30.26 in10.0 miSE (140°)9.2 mphClear
11:53 AM84.0 °F69.1 °F61 %30.26 in10.0 miSE (140°)10.4 mphClear
12:53 PM84.9 °F70.0 °F61 %30.26 in10.0 miSE (140°)8.1 mphPartly Cloudy
1:53 PM84.9 °F71.1 °F63 %30.24 in10.0 miSE (140°)9.2 mph17.3 mphPartly Cloudy
2:53 PM86.0 °F72.0 °F63 %30.22 in10.0 miSSE (150°)11.5 mph17.3 mphClear
3:53 PM84.9 °F71.1 °F63 %30.20 in10.0 miSouth (170°)12.7 mphPartly Cloudy
4:53 PM84.0 °F71.1 °F65 %30.19 in10.0 miSE (140°)10.4 mph16.1 mphClear
5:53 PM82.9 °F70.0 °F65 %30.18 in10.0 miSE (140°)10.4 mphPartly Cloudy
6:53 PM82.9 °F70.0 °F65 %30.17 in10.0 miSouth (170°)12.7 mphClear
7:53 PM81.0 °F70.0 °F69 %30.18 in10.0 miSouth (170°)10.4 mphClear
8:53 PM77.0 °F71.1 °F82 %30.19 in10.0 miSouth (170°)3.5 mph0.01 inClear
9:53 PM77.0 °F71.1 °F82 %30.21 in10.0 miCalmClear
10:53 PM75.0 °F72.0 °F90 %30.22 in10.0 miCalmClear
11:53 PM73.9 °F71.1 °F91 %30.21 in10.0 miSSE (160°)3.5 mphClear
Hourly data recorded from KILM, located miles away from Wilmington, North Carolina







STORIES FROM OUR PARTNERS